period_start,C,m1,H,J0,J1,J2,J3,J4,J5,JA,JB,JC,JD,JJ,JK,JN,#
2014-06-15 00:04:48,0.01,0.79,0.00,23.33,27.80,30.43,9.46,39.90,1015.36,2036.38,3162.00,3089.98,3352.00,499.64,495.17,40.50,0000 0000 0000 0000 000000
2014-06-15 00:09:49,0.04,0.79,0.00,23.38,27.82,30.42,9.60,39.88,1015.17,2036.74,3162.00,3089.94,3352.00,499.89,495.31,40.54,0000 0000 0000 0000 000000
2014-06-15 00:14:50,-0.01,0.79,0.00,23.36,27.82,30.43,9.65,39.77,1015.18,2036.68,3161.84,3089.73,3352.00,500.40,495.69,40.58,0000 0000 0000 0000 000000
2014-06-15 00:19:52,0.01,0.79,0.00,23.24,27.82,30.45,9.62,39.90,1015.24,2036.37,3161.20,3089.16,3351.91,499.99,495.63,40.62,0000 0000 0000 0000 000000
2014-06-15 00:24:53,0.03,0.79,0.00,22.93,27.82,30.35,9.55,39.67,1015.27,2036.46,3161.03,3089.04,3351.76,499.91,495.92,40.66,0000 0000 0000 0000 000000
2014-06-15 00:29:54,0.01,0.79,0.00,22.50,27.82,30.01,9.59,39.87,1015.17,2036.53,3161.00,3089.01,3351.38,499.92,496.76,40.70,0000 0000 0000 0000 000000
2014-06-15 00:34:55,-0.02,0.79,0.00,22.28,27.82,29.65,9.51,39.98,1015.17,2036.34,3160.98,3089.00,3351.05,499.57,496.74,40.75,0000 0000 0000 0000 000000
2014-06-15 00:39:57,-0.02,0.79,0.00,22.22,27.82,29.44,9.52,40.00,1015.15,2036.17,3160.65,3088.99,3351.01,499.76,496.95,40.79,0000 0000 0000 0000 000000
2014-06-15 00:44:58,0.03,0.79,0.00,22.24,27.82,29.32,9.60,40.04,1015.15,2036.25,3160.18,3088.98,3351.00,499.43,496.63,40.83,0000 0000 0000 0000 000000
2014-06-15 00:49:59,0.00,0.79,0.00,22.32,27.82,29.31,9.54,39.83,1015.02,2036.35,3160.05,3088.94,3350.99,499.68,496.71,40.87,0000 0000 0000 0000 000000
2014-06-15 00:55:01,0.00,0.79,0.00,22.37,27.82,29.31,9.61,40.13,1014.88,2036.17,3160.00,3088.46,3350.87,499.85,496.66,40.91,0000 0000 0000 0000 000000
2014-06-15 01:00:02,0.03,0.79,0.00,22.90,27.84,29.89,9.59,39.68,1014.96,2036.23,3159.97,3088.18,3350.59,500.27,496.25,40.95,0000 0000 0000 0000 000000
2014-06-15 01:05:03,0.01,0.79,0.00,23.29,27.85,30.29,9.66,39.61,1015.04,2036.17,3159.74,3088.03,3350.14,500.06,495.55,41.00,0000 0000 0000 0000 000000
2014-06-15 01:10:04,0.00,0.79,0.00,23.43,27.85,30.39,9.66,39.57,1015.01,2036.16,3159.17,3088.00,3350.01,500.35,495.53,41.04,0000 0000 0000 0000 000000
2014-06-15 01:15:05,0.01,0.79,0.00,23.52,27.85,30.50,9.65,39.67,1014.73,2036.15,3159.01,3088.00,3350.00,500.31,495.09,41.08,0000 0000 0000 0000 000000
2014-06-15 01:20:06,-0.00,0.79,0.00,23.62,27.87,30.53,9.52,39.60,1014.68,2036.19,3159.00,3087.98,3350.00,500.13,494.70,41.12,0000 0000 0000 0000 000000
2014-06-15 01:25:08,0.01,0.79,0.00,23.64,27.87,30.53,9.56,39.83,1014.66,2036.23,3158.97,3087.91,3349.95,500.25,494.82,41.16,0000 0000 0000 0000 000000
2014-06-15 01:30:09,0.03,0.79,0.00,23.63,27.87,30.56,9.54,39.78,1014.66,2036.17,3158.69,3087.44,3349.48,499.98,494.66,41.20,0000 0000 0000 0000 000000
2014-06-15 01:35:09,0.02,0.80,0.00,23.63,27.87,30.53,9.50,39.67,1014.62,2036.20,3158.20,3087.14,3349.15,499.70,494.43,41.24,0000 0000 0000 0000 000000
2014-06-15 01:40:10,0.01,0.80,0.00,23.61,27.88,30.53,9.53,39.67,1014.37,2036.30,3158.01,3087.03,3349.04,500.30,494.88,41.29,0000 0000 0000 0000 000000
2014-06-15 01:45:12,0.02,0.80,0.00,23.62,27.87,30.50,9.50,39.67,1014.35,2036.49,3158.00,3087.01,3349.00,499.58,494.07,41.33,0000 0000 0000 0000 000000
2014-06-15 01:50:13,-0.00,0.80,0.00,23.62,27.87,30.49,9.47,39.83,1014.20,2036.43,3157.95,3087.00,3348.99,499.64,494.10,41.37,0000 0000 0000 0000 000000
2014-06-15 01:55:14,0.03,0.80,0.00,23.59,27.87,30.49,9.59,39.83,1014.19,2036.67,3157.74,3087.00,3348.97,500.42,495.00,41.41,0000 0000 0000 0000 000000
2014-06-15 02:00:15,-0.02,0.80,0.00,23.57,27.87,30.47,9.62,39.80,1014.19,2036.40,3157.11,3086.94,3348.80,499.86,494.19,41.45,0000 0000 0000 0000 000000
2014-06-15 02:05:16,0.02,0.80,0.00,23.58,27.87,30.45,9.57,39.72,1014.19,2036.35,3157.00,3086.80,3348.26,500.07,494.59,41.49,0000 0000 0000 0000 000000
2014-06-15 02:10:17,0.02,0.80,0.00,23.57,27.87,30.46,9.46,39.77,1014.18,2036.35,3156.96,3086.27,3348.03,499.61,494.07,41.54,0000 0000 0000 0000 000000
2014-06-15 02:15:18,0.03,0.80,0.00,23.56,27.85,30.43,9.58,39.66,1014.18,2036.54,3156.65,3086.13,3348.01,499.99,494.75,41.58,0000 0000 0000 0000 000000
2014-06-15 02:20:19,0.01,0.80,0.00,23.58,27.85,30.43,9.53,39.71,1014.10,2036.52,3156.07,3086.01,3347.99,500.07,494.56,41.62,0000 0000 0000 0000 000000
2014-06-15 02:25:20,0.01,0.80,0.00,23.65,27.85,30.43,9.56,39.75,1013.84,2036.61,3156.00,3086.00,3347.97,499.81,494.09,41.66,0000 0000 0000 0000 000000
2014-06-15 02:30:21,-0.00,0.80,0.00,23.68,27.85,30.41,9.73,39.86,1013.74,2036.51,3155.98,3085.99,3347.66,500.60,494.57,41.70,0000 0000 0000 0000 000000
2014-06-15 02:35:22,0.04,0.80,0.00,23.69,27.85,30.41,9.34,39.50,1013.70,2036.56,3155.39,3085.88,3347.06,499.65,493.68,41.74,0000 0000 0000 0000 000000
2014-06-15 02:40:23,0.02,0.81,0.00,23.69,27.85,30.42,9.60,39.63,1013.69,2036.70,3155.04,3085.53,3347.01,500.19,494.32,41.78,0000 0000 0000 0000 000000
2014-06-15 02:45:24,0.01,0.81,0.00,23.77,27.85,30.39,9.51,39.59,1013.62,2036.70,3155.00,3085.10,3347.00,499.88,493.83,41.83,0000 0000 0000 0000 000000
2014-06-15 02:50:25,0.02,0.81,0.00,23.79,27.85,30.41,9.47,39.64,1013.58,2036.80,3154.98,3085.01,3346.98,499.55,493.31,41.87,0000 0000 0000 0000 000000
2014-06-15 02:55:27,0.00,0.81,0.00,23.84,27.85,30.42,9.52,39.75,1013.54,2036.83,3154.81,3085.00,3346.91,500.00,493.81,41.91,0000 0000 0000 0000 000000
2014-06-15 03:00:28,0.03,0.81,0.00,23.87,27.85,30.40,9.67,39.58,1013.22,2036.93,3154.21,3085.00,3346.53,500.62,494.21,41.95,0000 0000 0000 0000 000000
2014-06-15 03:05:29,0.01,0.81,0.00,23.88,27.84,30.34,9.43,39.38,1013.21,2036.91,3153.99,3084.92,3346.02,499.68,493.28,41.99,0000 0000 0000 0000 000000
2014-06-15 03:10:30,0.02,0.81,0.00,23.91,27.84,30.38,9.53,39.58,1013.20,2036.94,3153.85,3084.65,3346.00,499.87,493.46,42.03,0000 0000 0000 0000 000000
2014-06-15 03:15:31,0.03,0.81,0.00,23.92,27.84,30.42,9.53,39.57,1013.17,2036.96,3153.28,3084.36,3346.00,499.89,493.33,42.08,0000 0000 0000 0000 000000
2014-06-15 03:20:32,0.01,0.81,0.00,23.95,27.83,30.42,9.60,39.66,1012.97,2036.98,3153.00,3084.05,3345.86,500.08,493.56,42.12,0000 0000 0000 0000 000000
2014-06-15 03:25:33,0.01,0.81,0.00,23.99,27.83,30.41,9.42,39.66,1012.85,2036.98,3152.92,3084.00,3345.22,499.79,492.96,42.16,0000 0000 0000 0000 000000
2014-06-15 03:30:34,0.01,0.81,0.00,24.02,27.82,30.39,9.49,39.69,1012.73,2036.98,3152.51,3084.00,3345.03,499.99,493.09,42.20,0000 0000 0000 0000 000000
2014-06-15 03:35:35,0.00,0.81,0.00,24.03,27.82,30.41,9.55,39.85,1012.74,2036.99,3152.08,3083.97,3345.00,500.19,493.09,42.24,0000 0000 0000 0000 000000
2014-06-15 03:40:36,0.02,0.81,0.00,24.06,27.82,30.41,9.49,39.63,1012.79,2036.99,3152.00,3083.54,3344.99,500.08,493.37,42.28,0000 0000 0000 0000 000000
2014-06-15 03:45:37,0.02,0.81,0.00,24.07,27.82,30.37,9.52,39.73,1012.88,2036.96,3151.77,3083.06,3344.63,499.79,493.03,42.32,0000 0000 0000 0000 000000
2014-06-15 03:50:38,0.02,0.82,0.00,24.05,27.82,30.43,9.36,39.54,1012.78,2036.99,3151.37,3083.03,3344.42,499.74,492.92,42.37,0000 0000 0000 0000 000000
2014-06-15 03:55:39,0.00,0.82,0.00,24.05,27.82,30.43,9.40,39.77,1013.09,2036.98,3151.00,3083.00,3344.02,500.17,493.35,42.41,0000 0000 0000 0000 000000
2014-06-15 04:00:41,0.00,0.82,0.00,24.02,27.82,30.44,9.50,39.71,1012.95,2036.98,3150.89,3082.96,3344.00,499.81,492.95,42.45,0000 0000 0000 0000 000000
2014-06-15 04:05:42,0.04,0.82,0.00,24.03,27.83,30.44,9.38,39.55,1012.86,2036.99,3150.17,3082.47,3343.83,499.73,492.85,42.49,0000 0000 0000 0000 000000
2014-06-15 04:10:43,0.01,0.82,0.00,23.99,27.83,30.46,9.43,39.46,1013.13,2036.99,3150.00,3082.05,3343.29,499.85,493.14,42.53,0000 0000 0000 0000 000000
2014-06-15 04:15:44,0.01,0.82,0.00,23.95,27.83,30.47,9.58,39.62,1013.20,2036.98,3149.97,3082.01,3343.03,500.37,493.70,42.57,0000 0000 0000 0000 000000
2014-06-15 04:20:46,0.02,0.82,0.00,23.94,27.84,30.45,9.54,39.62,1013.21,2036.99,3149.38,3082.00,3343.00,499.96,493.48,42.62,0000 0000 0000 0000 000000
2014-06-15 04:25:47,0.00,0.82,0.00,23.95,27.84,30.46,9.55,39.61,1013.20,2036.99,3149.01,3081.98,3342.98,500.22,493.70,42.66,0000 0000 0000 0000 000000
2014-06-15 04:30:48,0.02,0.82,0.00,24.00,27.85,30.45,9.55,39.49,1013.19,2036.99,3148.99,3081.71,3342.71,500.14,493.57,42.70,0000 0000 0000 0000 000000
2014-06-15 04:35:49,0.03,0.82,0.00,23.96,27.85,30.46,9.48,39.52,1013.17,2036.98,3148.51,3081.11,3342.09,500.17,493.64,42.74,0000 0000 0000 0000 000000
2014-06-15 04:40:50,0.01,0.82,0.00,23.93,27.85,30.45,9.53,39.40,1013.15,2036.99,3148.02,3081.01,3342.00,499.87,493.30,42.78,0000 0000 0000 0000 000000
2014-06-15 04:45:51,0.00,0.82,0.00,23.92,27.85,30.45,9.46,39.63,1013.02,2036.98,3147.92,3080.99,3341.97,499.69,493.08,42.82,0000 0000 0000 0000 000000
2014-06-15 04:50:52,0.03,0.82,0.00,23.90,27.85,30.45,9.47,39.56,1012.77,2036.98,3147.32,3080.84,3341.49,499.84,493.19,42.86,0000 0000 0000 0000 000000
2014-06-15 04:55:53,0.03,0.83,0.00,23.90,27.85,30.44,9.56,39.42,1012.72,2036.98,3146.99,3080.21,3341.05,500.08,493.25,42.91,0000 0000 0000 0000 000000
2014-06-15 05:00:54,0.01,0.83,0.00,23.84,27.85,30.45,9.52,39.40,1012.71,2036.97,3146.76,3080.01,3341.00,500.25,493.65,42.95,0000 0000 0000 0000 000000
2014-06-15 05:05:55,0.01,0.83,0.00,23.83,27.85,30.43,9.49,39.29,1012.71,2036.98,3146.10,3080.00,3340.89,500.15,493.56,42.99,0000 0000 0000 0000 000000
2014-06-15 05:10:56,0.01,0.83,0.00,23.84,27.85,30.40,9.47,39.34,1012.64,2036.97,3145.99,3079.94,3340.24,500.04,493.28,43.03,0000 0000 0000 0000 000000
2014-06-15 05:15:57,0.03,0.83,0.00,23.83,27.85,30.41,9.50,39.52,1012.43,2036.96,3145.82,3079.44,3340.02,499.76,492.93,43.07,0000 0000 0000 0000 000000
2014-06-15 05:20:58,0.02,0.83,0.00,23.87,27.85,30.41,9.59,39.47,1012.45,2036.95,3145.19,3079.06,3340.00,500.21,493.37,43.11,0000 0000 0000 0000 000000
2014-06-15 05:25:59,0.00,0.83,0.00,23.92,27.85,30.41,9.54,39.54,1012.51,2036.97,3145.00,3079.00,3339.96,500.10,493.28,43.15,0000 0000 0000 0000 000000
2014-06-15 05:30:59,0.00,0.83,0.00,23.94,27.85,30.40,9.56,39.52,1012.69,2036.97,3144.89,3079.00,3339.74,500.18,493.28,43.20,0000 0000 0000 0000 000000
2014-06-15 05:36:01,0.01,0.83,0.00,23.97,27.85,30.41,9.43,39.40,1012.71,2036.99,3144.53,3078.97,3339.42,499.67,492.93,43.24,0000 0000 0000 0000 000000
2014-06-15 05:41:02,0.02,0.83,0.00,24.01,27.85,30.42,9.60,39.37,1012.71,2036.98,3144.07,3078.90,3339.07,500.24,493.29,43.28,0000 0000 0000 0000 000000
2014-06-15 05:46:03,0.02,0.83,0.00,23.99,27.85,30.42,9.49,39.53,1012.72,2036.99,3143.98,3078.28,3339.00,500.00,493.05,43.32,0000 0000 0000 0000 000000
2014-06-15 05:51:05,0.01,0.83,0.00,23.98,27.85,30.45,9.38,39.57,1012.63,2036.99,3143.52,3078.03,3338.99,499.63,492.81,43.36,0000 0000 0000 0000 000000
2014-06-15 05:56:06,0.01,0.83,0.00,24.00,27.84,30.45,9.51,39.33,1012.51,2036.99,3143.01,3078.00,3338.55,499.82,492.85,43.40,0000 0000 0000 0000 000000
2014-06-15 06:01:07,0.00,0.83,0.00,23.97,27.84,30.44,9.51,39.22,1012.31,2036.99,3142.87,3077.99,3338.08,500.06,493.06,43.44,0000 0000 0000 0000 000000
2014-06-15 06:06:08,0.02,0.84,0.00,23.93,27.84,30.46,9.51,39.24,1012.23,2036.99,3142.15,3077.88,3338.00,500.10,493.14,43.49,0000 0000 0000 0000 000000
2014-06-15 06:11:09,0.02,0.84,0.00,23.90,27.85,30.47,9.48,39.47,1012.22,2036.99,3142.01,3077.22,3337.97,500.11,493.26,43.53,0000 0000 0000 0000 000000
2014-06-15 06:16:11,0.02,0.84,0.00,23.90,27.85,30.47,9.54,39.47,1012.16,2036.99,3141.84,3077.01,3337.57,500.26,493.31,43.57,0000 0000 0000 0000 000000
2014-06-15 06:21:12,0.01,0.84,0.00,23.89,27.85,30.47,9.46,39.47,1011.91,2036.99,3141.12,3077.00,3337.06,500.07,492.96,43.61,0000 0000 0000 0000 000000
2014-06-15 06:26:13,0.01,0.84,0.00,23.85,27.85,30.46,9.47,39.50,1011.74,2036.99,3140.98,3076.82,3337.00,499.90,492.85,43.65,0000 0000 0000 0000 000000
2014-06-15 06:31:15,0.04,0.84,0.00,23.80,27.85,30.47,9.54,39.61,1011.73,2036.99,3140.54,3076.29,3336.94,499.93,493.11,43.69,0000 0000 0000 0000 000000
2014-06-15 06:36:16,0.02,0.84,0.00,23.80,27.85,30.46,9.52,39.82,1011.71,2037.00,3140.01,3076.02,3336.34,499.89,492.98,43.74,0000 0000 0000 0000 000000
2014-06-15 06:41:17,0.00,0.84,0.00,23.79,27.85,30.46,9.57,39.84,1011.70,2037.00,3139.95,3075.99,3336.01,500.13,493.01,43.78,0000 0000 0000 0000 000000
2014-06-15 06:46:19,0.01,0.84,0.00,23.76,27.85,30.45,9.51,39.65,1011.71,2037.00,3139.27,3075.94,3335.98,499.88,492.96,43.82,0000 0000 0000 0000 000000
2014-06-15 06:51:20,0.04,0.84,0.00,23.74,27.85,30.44,9.53,39.85,1011.72,2037.00,3139.00,3075.28,3335.58,500.30,493.40,43.86,0000 0000 0000 0000 000000
2014-06-15 06:56:21,0.01,0.84,0.00,23.74,27.85,30.44,9.53,39.63,1011.70,2037.00,3138.71,3075.00,3335.04,499.83,492.99,43.90,0000 0000 0000 0000 000000
2014-06-15 07:01:22,0.01,0.85,0.00,23.74,27.85,30.43,9.45,39.73,1011.71,2037.00,3138.04,3074.99,3334.99,499.95,492.93,43.94,0000 0000 0000 0000 000000
2014-06-15 07:06:23,0.01,0.85,0.00,23.75,27.85,30.42,9.54,39.70,1011.73,2037.00,3137.95,3074.86,3334.88,499.93,492.91,43.98,0000 0000 0000 0000 000000
2014-06-15 07:11:25,0.05,0.85,0.00,23.76,27.84,30.40,9.42,39.57,1011.73,2037.00,3137.25,3074.18,3334.16,499.72,492.82,44.03,0000 0000 0000 0000 000000
2014-06-15 07:16:26,0.00,0.85,0.00,23.65,27.84,30.42,9.51,39.77,1011.73,2037.00,3137.01,3074.03,3334.00,499.41,492.63,44.07,0000 0000 0000 0000 000000
2014-06-15 07:21:27,0.01,0.85,0.00,23.39,27.83,30.44,9.55,39.61,1011.73,2037.00,3136.63,3074.00,3333.95,500.07,493.81,44.11,0000 0000 0000 0000 000000
2014-06-15 07:26:28,0.02,0.85,0.00,23.23,27.82,30.39,9.55,39.77,1011.73,2037.00,3136.03,3073.83,3333.51,500.16,494.15,44.15,0000 0000 0000 0000 000000
2014-06-15 07:31:29,0.03,0.85,0.00,23.14,27.82,30.36,9.59,39.76,1011.73,2037.00,3135.87,3073.21,3333.06,500.33,494.42,44.19,0000 0000 0000 0000 000000
2014-06-15 07:36:30,0.02,0.85,0.00,23.09,27.80,30.31,9.49,39.70,1011.73,2037.00,3135.13,3073.00,3332.99,500.00,494.16,44.23,0000 0000 0000 0000 000000
2014-06-15 07:41:31,0.00,0.85,0.00,23.13,27.78,30.24,9.58,39.68,1011.76,2037.01,3135.00,3073.00,3332.95,500.15,494.21,44.28,0000 0000 0000 0000 000000
2014-06-15 07:46:33,0.01,0.85,0.00,23.37,27.76,30.19,9.43,39.59,1011.76,2037.03,3134.97,3072.97,3332.42,499.70,493.32,44.32,0000 0000 0000 0000 000000
2014-06-15 07:51:34,0.03,0.85,0.00,23.61,27.75,30.14,9.47,39.61,1011.75,2037.05,3134.48,3072.65,3332.03,499.80,493.11,44.36,0000 0000 0000 0000 000000
2014-06-15 07:56:35,0.02,0.86,0.00,23.69,27.73,30.18,9.46,39.70,1011.75,2037.06,3134.02,3072.05,3332.00,499.83,493.01,44.40,0000 0000 0000 0000 000000
2014-06-15 08:01:37,0.01,0.86,0.00,23.55,27.72,30.20,9.50,39.91,1011.73,2037.13,3133.93,3072.00,3331.95,499.97,493.28,44.44,0000 0000 0000 0000 000000
2014-06-15 08:06:37,0.06,0.86,0.00,23.37,27.72,30.22,9.57,39.96,1011.73,2037.27,3133.25,3071.97,3331.33,500.07,493.84,44.48,0000 0000 0000 0000 000000
2014-06-15 08:11:38,0.02,0.86,0.00,23.31,27.71,30.21,9.57,39.85,1011.73,2037.35,3132.94,3071.58,3331.01,500.14,493.84,44.52,0000 0000 0000 0000 000000
2014-06-15 08:16:39,0.05,0.86,0.00,23.29,27.70,30.22,9.52,39.73,1011.72,2037.46,3132.35,3071.07,3330.98,499.66,493.61,44.57,0000 0000 0000 0000 000000
2014-06-15 08:21:40,0.04,0.86,0.00,23.29,27.70,30.20,9.49,39.67,1011.72,2037.85,3132.01,3071.01,3330.87,500.24,493.95,44.61,0000 0000 0000 0000 000000
2014-06-15 08:26:42,0.03,0.86,0.00,23.30,27.67,30.21,9.51,39.53,1011.73,2037.95,3131.65,3071.00,3330.15,499.89,493.67,44.65,0000 0000 0000 0000 000000
2014-06-15 08:31:43,0.01,0.87,0.00,23.32,27.67,30.17,9.52,39.65,1011.73,2037.97,3131.06,3070.95,3330.00,500.07,493.66,44.69,0000 0000 0000 0000 000000
2014-06-15 08:36:43,0.02,0.87,0.00,23.33,27.66,30.14,9.55,39.89,1011.74,2037.98,3130.97,3070.50,3329.96,500.04,493.99,44.73,0000 0000 0000 0000 000000
2014-06-15 08:41:45,0.04,0.87,0.00,23.36,27.65,30.12,9.53,39.88,1011.74,2037.99,3130.25,3070.06,3329.56,500.13,493.89,44.77,0000 0000 0000 0000 000000
2014-06-15 08:46:46,0.00,0.87,0.00,23.38,27.65,30.11,9.51,39.77,1011.74,2037.99,3130.00,3070.00,3329.04,499.63,493.30,44.82,0000 0000 0000 0000 000000
2014-06-15 08:51:47,0.02,0.87,0.00,23.42,27.63,30.10,9.52,39.64,1011.74,2037.99,3129.41,3069.92,3328.98,499.88,493.30,44.86,0000 0000 0000 0000 000000
2014-06-15 08:56:48,0.04,0.87,0.00,23.45,27.62,30.09,9.46,39.69,1011.75,2037.99,3128.99,3069.21,3328.38,499.97,493.41,44.90,0000 0000 0000 0000 000000
2014-06-15 09:01:49,0.02,0.87,0.00,23.48,27.62,30.10,9.54,39.64,1011.75,2037.99,3128.52,3069.00,3328.01,499.93,493.28,44.94,0000 0000 0000 0000 000000
2014-06-15 09:06:50,0.00,0.87,0.00,23.51,27.62,30.11,9.50,39.72,1011.76,2037.99,3128.01,3068.96,3327.96,499.94,493.40,44.98,0000 0000 0000 0000 000000
2014-06-15 09:11:52,0.04,0.87,0.00,23.53,27.62,30.10,9.53,39.60,1012.02,2037.99,3127.70,3068.44,3327.45,499.87,493.31,45.02,0000 0000 0000 0000 000000
2014-06-15 09:16:53,0.02,0.88,0.00,23.55,27.62,30.11,9.52,39.34,1012.17,2037.99,3127.05,3068.03,3327.01,499.96,493.68,45.07,0000 0000 0000 0000 000000
2014-06-15 09:21:54,0.01,0.88,0.00,23.57,27.62,30.11,9.51,39.51,1012.21,2037.99,3126.81,3067.99,3326.99,499.91,493.55,45.11,0000 0000 0000 0000 000000
2014-06-15 09:26:55,0.02,0.88,0.00,23.60,27.62,30.12,9.51,39.62,1012.21,2037.99,3126.10,3067.85,3326.71,500.03,493.54,45.15,0000 0000 0000 0000 000000
2014-06-15 09:31:56,0.03,0.88,0.00,23.62,27.62,30.12,9.54,39.57,1012.22,2037.99,3125.90,3067.14,3326.06,500.31,493.68,45.19,0000 0000 0000 0000 000000
2014-06-15 09:36:57,0.01,0.88,0.00,23.62,27.62,30.13,9.55,39.65,1012.22,2037.99,3125.20,3067.01,3326.00,500.10,493.57,45.23,0000 0000 0000 0000 000000
2014-06-15 09:41:57,0.01,0.88,0.00,23.62,27.62,30.13,9.51,39.48,1012.22,2037.99,3124.93,3066.95,3325.74,499.82,493.37,45.27,0000 0000 0000 0000 000000
2014-06-15 09:46:58,0.05,0.88,0.00,23.64,27.63,30.11,9.47,39.44,1012.23,2037.99,3124.22,3066.31,3325.08,499.77,493.21,45.31,0000 0000 0000 0000 000000
2014-06-15 09:51:59,0.00,0.88,0.00,23.66,27.64,30.10,9.45,39.40,1012.22,2037.99,3123.89,3066.01,3324.98,500.09,493.68,45.36,0000 0000 0000 0000 000000
2014-06-15 09:57:00,0.03,0.88,0.00,23.67,27.65,30.13,9.47,39.61,1012.24,2037.99,3123.14,3065.95,3324.51,499.86,493.36,45.40,0000 0000 0000 0000 000000
2014-06-15 10:02:01,0.03,0.89,0.00,23.67,27.65,30.13,9.51,39.40,1012.24,2037.99,3122.93,3065.29,3324.01,500.29,493.81,45.44,0000 0000 0000 0000 000000
2014-06-15 10:07:02,0.02,0.89,0.00,23.69,27.65,30.13,9.54,39.51,1012.23,2037.99,3122.19,3065.00,3323.90,500.43,493.86,45.48,0000 0000 0000 0000 000000
2014-06-15 10:12:03,0.02,0.89,0.00,23.70,27.67,30.13,9.49,39.34,1012.26,2037.99,3121.90,3064.93,3323.18,499.73,493.07,45.52,0000 0000 0000 0000 000000
2014-06-15 10:17:04,0.04,0.89,0.00,23.72,27.67,30.16,9.56,39.72,1012.36,2037.99,3121.16,3064.34,3323.00,500.24,493.68,45.56,0000 0000 0000 0000 000000
2014-06-15 10:22:05,0.01,0.89,0.00,23.74,27.68,30.15,9.57,39.77,1012.58,2037.99,3120.97,3064.02,3322.79,499.89,493.38,45.61,0000 0000 0000 0000 000000
2014-06-15 10:27:06,0.03,0.89,0.00,23.76,27.70,30.17,9.49,39.67,1012.69,2037.99,3120.32,3063.98,3322.07,499.75,493.26,45.65,0000 0000 0000 0000 000000
2014-06-15 10:32:07,0.03,0.89,0.00,23.77,27.70,30.19,9.53,39.43,1012.70,2037.99,3119.95,3063.33,3321.97,500.11,493.51,45.69,0000 0000 0000 0000 000000
2014-06-15 10:37:08,0.03,0.89,0.00,23.78,27.71,30.17,9.50,39.52,1012.69,2037.98,3119.22,3063.01,3321.24,500.19,493.47,45.73,0000 0000 0000 0000 000000
2014-06-15 10:42:09,0.01,0.89,0.00,23.80,27.72,30.19,9.57,39.42,1012.68,2037.99,3118.95,3062.89,3321.00,499.94,493.27,45.77,0000 0000 0000 0000 000000
2014-06-15 10:47:11,0.05,0.90,0.00,23.82,27.73,30.18,9.45,39.40,1012.71,2037.99,3118.15,3062.16,3320.84,499.57,492.97,45.81,0000 0000 0000 0000 000000
2014-06-15 10:52:12,0.02,0.90,0.00,23.84,27.75,30.19,9.53,39.53,1012.73,2037.97,3117.84,3062.00,3320.06,500.19,493.47,45.85,0000 0000 0000 0000 000000
2014-06-15 10:57:14,0.03,0.90,0.00,23.86,27.76,30.20,9.50,39.02,1012.96,2037.95,3117.09,3061.62,3319.93,499.79,493.25,45.90,0000 0000 0000 0000 000000
2014-06-15 11:02:15,0.03,0.90,0.00,23.89,27.77,30.18,9.54,39.20,1013.20,2037.97,3116.67,3061.05,3319.31,500.36,494.09,45.94,0000 0000 0000 0000 000000
2014-06-15 11:07:16,0.10,0.90,0.00,23.91,27.79,30.19,9.45,39.00,1013.19,2037.97,3114.92,3060.08,3318.07,499.64,493.17,45.98,0000 0000 0000 0000 000000
2014-06-15 11:12:17,0.13,0.91,0.00,23.94,27.80,30.20,9.45,39.36,1013.20,2037.94,3112.69,3058.54,3316.37,499.77,493.20,46.02,0000 0000 0000 0000 000000
2014-06-15 11:17:19,0.12,0.91,0.00,23.97,27.82,30.20,9.50,39.02,1013.21,2037.87,3110.46,3056.86,3314.59,499.91,493.38,46.06,0000 0000 0000 0000 000000
2014-06-15 11:22:20,0.11,0.92,0.00,24.00,27.82,30.21,9.50,39.17,1013.22,2037.83,3108.29,3055.41,3312.86,500.27,493.58,46.10,0000 0000 0000 0000 000000
2014-06-15 11:27:21,0.12,0.92,0.00,24.01,27.84,30.21,9.47,39.33,1013.21,2037.65,3105.98,3053.72,3311.15,500.03,493.31,46.15,0000 0000 0000 0000 000000
2014-06-15 11:32:22,0.10,0.93,0.00,24.03,27.85,30.22,9.47,39.21,1013.43,2037.31,3103.50,3051.90,3309.22,500.09,493.44,46.19,0000 0000 0000 0000 000000
2014-06-15 11:37:24,0.13,0.93,0.00,24.05,27.87,30.23,9.56,39.29,1013.61,2037.10,3100.93,3050.12,3307.25,500.03,493.47,46.23,0000 0000 0000 0000 000000
2014-06-15 11:42:25,0.15,0.94,0.00,24.07,27.87,30.26,9.47,38.55,1013.66,2037.05,3098.31,3048.23,3305.20,500.30,493.86,46.27,0000 0000 0000 0000 000000
2014-06-15 11:47:27,0.19,0.95,0.00,24.08,27.90,30.27,9.49,38.91,1013.69,2037.01,3095.18,3046.03,3302.81,500.01,493.50,46.31,0000 0000 0000 0000 000000
2014-06-15 11:52:28,0.22,0.96,0.00,24.10,27.90,30.30,9.47,38.77,1013.71,2037.01,3091.42,3043.43,3299.98,499.74,493.47,46.35,0000 0000 0000 0000 000000
2014-06-15 11:57:29,0.20,0.97,0.00,24.12,27.92,30.32,9.50,38.82,1014.08,2037.00,3087.85,3040.94,3297.30,500.05,493.78,46.40,0000 0000 0000 0000 000000
2014-06-15 12:02:30,0.19,0.97,0.00,24.13,27.93,30.34,9.50,38.52,1014.17,2037.00,3084.54,3038.67,3294.85,499.62,493.33,46.44,0000 0000 0000 0000 000000
2014-06-15 12:07:32,0.19,0.98,0.00,24.16,27.95,30.36,9.48,38.41,1014.24,2037.00,3081.24,3036.28,3292.33,500.19,493.70,46.48,0000 0000 0000 0000 000000
2014-06-15 12:12:33,0.17,0.99,0.00,24.17,27.96,30.36,9.54,38.97,1014.33,2037.00,3078.39,3034.28,3290.20,500.33,493.98,46.52,0000 0000 0000 0000 000000
2014-06-15 12:17:34,0.20,1.00,0.00,24.19,27.98,30.36,9.43,38.15,1014.58,2036.98,3074.86,3031.97,3287.61,499.79,493.48,46.56,0000 0000 0000 0000 000000
2014-06-15 12:22:35,0.18,1.01,0.00,24.20,28.00,30.38,9.45,38.75,1014.66,2036.98,3071.66,3029.66,3285.16,500.15,493.91,46.60,0000 0000 0000 0000 000000
2014-06-15 12:27:37,0.15,1.01,0.00,24.21,28.01,30.38,9.49,39.26,1014.67,2036.91,3069.00,3027.73,3283.09,500.02,493.43,46.65,0000 0000 0000 0000 000000
2014-06-15 12:32:38,0.13,1.02,0.00,24.22,28.02,30.39,9.57,39.10,1014.72,2036.68,3066.22,3025.74,3280.93,500.10,493.85,46.69,0000 0000 0000 0000 000000
2014-06-15 12:37:39,0.11,1.02,0.00,24.22,28.04,30.39,9.52,39.35,1014.75,2036.16,3063.57,3023.77,3278.86,500.32,494.07,46.73,0000 0000 0000 0000 000000
2014-06-15 12:42:40,0.15,1.03,0.00,24.22,28.05,30.41,9.47,38.92,1014.90,2036.08,3060.75,3021.90,3276.80,499.43,493.24,46.77,0000 0000 0000 0000 000000
2014-06-15 12:47:41,0.15,1.04,0.00,24.23,28.07,30.44,9.45,38.89,1014.93,2036.02,3058.17,3020.11,3274.77,499.85,493.74,46.81,0000 0000 0000 0000 000000
2014-06-15 12:52:43,0.16,1.04,0.00,24.23,28.08,30.45,9.47,38.68,1015.01,2036.00,3055.44,3018.18,3272.71,499.94,493.81,46.85,0000 0000 0000 0000 000000
2014-06-15 12:57:44,0.15,1.05,0.00,24.23,28.10,30.47,9.51,38.95,1015.14,2036.00,3052.75,3016.30,3270.66,500.43,494.30,46.90,0000 0000 0000 0000 000000
2014-06-15 13:02:45,0.15,1.06,0.00,24.23,28.11,30.48,9.50,38.92,1015.15,2036.00,3050.16,3014.49,3268.67,500.31,494.23,46.94,0000 0000 0000 0000 000000